Starlink 32920

operational
NORAD ID: 62925 Int'l Des: 2025-027 Owner: SPXS Country: US Constellation: starlink
LEOCIRCULAR

Starlink 32920について

説明を読み込み中...

リアルタイム位置

3D地球を読み込み中...

次回通過

高度履歴

Altitude vs Time

uPlot chart will show altitude changes over time

軌道要素

1 62925U 25027U 25257.47833732 .00030307 00000-0 11058-2 0 9998
2 62925 43.0036 43.9613 0002677 286.1422 73.9135 15.27595504 34597
Epoch: Sep 14, 2025 • Age: 20 hours

現在のステータス

高度 485.5 km
速度 7.62 km/s
衛星直下点 -13.81°S, 132.26°E
打ち上げ日 Feb 8, 2025
運用期間 0.5 years
タイプ internet

技術仕様

分類 Payload
質量 730.00 kg
乾燥質量 700.00 kg
総質量 730.00 kg
長さ 0.30 m
直径 4.10 m
スパン 29.00 m
形状 Box + pan
製造者 SPXS
バスタイプ Starlink V2M
フェーズステータス In Orbit
所有者/国 SPXS/US

大規模コンステレーション

Loading constellations...